NOAA 16 DEB

Satellite information

Favourite Embed

Satellite Type and Status

DEBRISIN ORBIT

Key statistics

Satellite NOAA 16 DEB at a glance.

Uptime

9214

Days in orbit

Revolutions

≈ 14.3

Per day

Orbit

SSO

Sun Synchronous Orbit

Inclination

98.7

Latest

Satellite identification and parameters

Extended collection of information and parameters for NOAA 16 DEB.

Object identification

Identified? True

Debris? True

Object name: NOAA 16 DEB

International designator: 2000-055JV

Object number (NORAD): 41376

Object ID (CCSDS): 41376

Country: UNITED STATES OF AMERICA (US)

Current information (Y/N): Y

RCS size: SMALL

Orbital parameters

Period: 100.558 minutes

Inclination: 98.7346 deg

SMA: 7163.16 km

Apoapsis: 797.425 km

Periapsis: 772.625 km

RAAN: 78.4944 deg

Eccentricy: 0.00173109

Argument of periapsis: 114.2509 deg

Mean anomaly: 246.0485 deg

Mean motion: 14.3200921 rev/day

Mean motion (dot): 0.00007606 rev/day2

B* drag term: 0.0028433033 1/REarth

Two-line elements (TLE)

Creation date: Dec. 12, 2025, 10:14 a.m.

Reference frame: TEME

Reference center: EARTH

Epoch: Dec. 12, 2025, 5:38 a.m. UTC

TLE line 0: 0 NOAA 16 DEB

TLE line 1: 1 41376U 00055JV 25346.23476088 .00007606 00000-0 28433-2 0 9990

TLE line 2: 2 41376 98.7346 78.4944 0017311 114.2509 246.0485 14.32009210512741

Live tracking on map

Real-time ground track for satellite NOAA 16 DEB.

In-orbit conjunctions

A list of the most updated potential collisions computed for object NOAA 16 DEB.

Target Orbit TCA Probability of collision Miss distance Type
SL-12 R/B(AUX MOTOR) LEO 2025-07-24 10:36:35 0.0002731652 687.0 (m) ROCKET BODY
STELLA SSO 2025-06-18 04:46:31 0.0002425192 709.0 (m) PAYLOAD
SL-8 R/B LEO 2025-04-30 18:05:43 0.0001095252 820.0 (m) ROCKET BODY
COSMOS 1275 DEB LEO 2025-04-15 10:41:31 0.0001421648 79.0 (m) DEBRIS
COSMOS 1275 DEB LEO 2024-09-26 22:47:51 0.001534176 304.0 (m) DEBRIS

Associated space launch

The NOAA K, L and M POES satellites begin the fifth generation of improved environmental monitoring in support of NOAA missions. The instrument payload has significant improvements and additions/deletions. The instrument changes have effected the spacecraft subsystems and data formats.

NOAA 16 DEB was lifted into orbit during the mission ‘Titan II SLV | NOAA 16’, on board a Titan II SLV space rocket.

The launch took place on Sept. 21, 2000, 10:22 a.m. from Space Launch Complex 4W.

For more information about the launch, click the button.

Launch to space Titan II SLV | NOAA 16
Titan II SLV | NOAA 16

Agency: N/A

Status: Launch Successful

Launch date: Sept. 21, 2000, 10:22 a.m. UTC

Rocket: Titan II SLV

Launch pad: Space Launch Complex 4W

Location: Vandenberg SFB, CA, USA

...

Latest news about this satellite

There are no fresh news available about this satellite. Check back as we update our databases every day.


Newsletter sign-up

Weekly statistics, charts and insights to help you stay on top of the space industry.